Flag for Germany Weather past 2 weeks in Ennepetal, North Rhine-Westphalia, Germany

Now
43 °F

Sunny.


Feels Like: 43 °F
Forecast: 35 / 53 °F
Wind: 2 mph from North

Location: Dortmund / Wickede

Current Time: Apr 28, 2015 at 9:34:01 AM

Latest Report: Apr 28, 2015 at 9:20 AM


Visibility: 10 mi

Pressure: 29.92 "Hg

Humidity: 66%

Dew point: 32 °F

Location of EnnepetalLocation

Historic Weather in Ennepetal — Graph

°F

Ennepetal temperature yesterday

Maximum temperature yesterday: 48 °F (at 5:20 AM)
Minimum temperature yesterday: 43 °F (at 9:50 AM)
Average temperature yesterday: 46 °F

Past Weeks' High & Low Weather Summary

 TemperatureHumidityPressure
High73 °F (Apr 15, 4:20 PM)94% (Apr 27, 5:20 AM)30.45 "Hg (Apr 27, 5:20 AM)
Low30 °F (Apr 28, 5:20 AM)18% (Apr 21, 4:50 PM)29.62 "Hg (Apr 27, 5:20 AM)
Average52 °F61%30.09 "Hg
* Reported Apr 13 8:20 AM — Apr 28 8:20 AM, Ennepetal, Weather by CustomWeather, © 2015

Note: Actual official high and low records may vary slightly from our data, if they occured in-between our weather recording intervals... More about our weather records

Advertising

Ennepetal weather history for previous 24 hours

 ConditionsComfort  
Time TempWeatherWind HumidityBarometerVisibility
8:20 AM
Tue, Apr 28
41 °FPassing clouds.5 mph76%29.92 "HgN/A
7:50 AM37 °FSunny.5 mph87%29.92 "Hg10 mi
7:20 AM37 °FSunny.2 mph87%29.89 "Hg10 mi
6:50 AM32 °FClear.2 mph87%29.89 "Hg10 mi
6:20 AM32 °FClear.2 mph93%29.89 "Hg10 mi
5:20 AM30 °FClear.No wind86%29.86 "Hg10 mi
10:50 PM
Mon, Apr 27
46 °FPassing clouds.9 mph66%29.80 "HgN/A
10:20 PM45 °FPassing clouds.5 mph81%29.80 "HgN/A
9:50 PM45 °FClear.3 mph81%29.80 "Hg10 mi
9:20 PM45 °FSunny.2 mph76%29.80 "Hg10 mi
8:50 PM46 °FSunny.3 mph71%29.77 "Hg10 mi
8:20 PM46 °FSunny.6 mph71%29.77 "Hg10 mi
7:50 PM46 °FSunny.6 mph71%29.77 "Hg10 mi
7:20 PM48 °FOvercast.6 mph66%29.77 "HgN/A
6:50 PM48 °FOvercast.6 mph66%29.77 "HgN/A
6:20 PM48 °FOvercast.7 mph66%29.77 "HgN/A
5:50 PM48 °FOvercast.8 mph66%29.74 "HgN/A
5:20 PM48 °FOvercast.8 mph66%29.77 "HgN/A
4:50 PM48 °FOvercast.8 mph66%29.77 "HgN/A
4:20 PM46 °FOvercast.8 mph71%29.77 "HgN/A
3:50 PM48 °FOvercast.6 mph66%29.77 "HgN/A
3:20 PM46 °FPartly sunny.8 mph66%29.77 "HgN/A
2:50 PM46 °FPartly sunny.8 mph66%29.77 "HgN/A
2:20 PM46 °FPartly sunny.10 mph66%29.74 "HgN/A
1:50 PM46 °FPartly sunny.10 mph71%29.74 "HgN/A
1:20 PM45 °FPartly sunny.10 mph81%29.74 "HgN/A
12:50 PM45 °FDrizzle. Partly sunny.10 mph81%29.74 "HgN/A
12:20 PM45 °FPartly sunny.10 mph81%29.74 "HgN/A
11:50 AM43 °FDrizzle. Partly sunny.13 mph87%29.74 "Hg4 mi
11:20 AM43 °FDrizzle. Partly sunny.10 mph93%29.71 "Hg4 mi
10:50 AM43 °FPartly sunny.10 mph93%29.71 "Hg6 mi
10:20 AM43 °FPartly sunny.12 mph93%29.71 "Hg6 mi
9:50 AM43 °FDrizzle. Partly sunny.10 mph93%29.68 "Hg4 mi
9:20 AM45 °FDrizzle. Partly sunny.13 mph87%29.68 "Hg4 mi
Weather by CustomWeather, © 2015

See weather overviewHow to use our weather pages